DateTimeUTC,F1_A11,F1_S11,BsB_S11,BsG_S11,BsR_S11,BbsB_S11,BbsG_S11,BbsR_S11,BaB_A11,BaG_A11,BaR_A11,Tu_S11,T_S11,Uu_S11,U_S11,P_S11,T1_A11
2021-04-04T03:00:00Z,00000200,21000000,,,,,,,-000.15,-000.53,-000.19,14.5,21.8,,00.0,0655.7,30.7
2021-04-04T03:01:00Z,00000200,21000000,,,,,,,-000.24,0000.62,-000.19,14.5,21.9,,00.0,0655.7,30.7
2021-04-04T03:02:00Z,00000200,21000000,,,,,,,0000.08,-000.59,0000.35,14.5,21.9,,00.0,0655.7,30.7
2021-04-04T03:03:00Z,00000200,61000000,,,,,,,0000.96,0001.14,0000.03,14.5,21.9,,00.0,0655.7,30.7
2021-04-04T03:04:00Z,00000200,41000000,0003.63,0002.18,0001.39,0000.48,0000.43,0000.10,0001.36,0001.27,0001.46,14.7,21.6,,00.0,0656.6,30.7
2021-04-04T03:05:00Z,00000200,01000000,0003.81,0002.20,0001.47,0000.41,0000.38,0000.19,0001.33,0001.34,0001.07,14.7,21.6,,00.0,0656.7,30.7
2021-04-04T03:06:00Z,00000200,01000000,0003.63,0002.34,0001.36,0000.83,0000.39,0000.16,0001.42,0000.93,0000.66,14.7,21.6,,00.0,0656.7,30.7
2021-04-04T03:07:00Z,00000200,01000000,0003.96,0002.29,0001.14,0000.59,0000.54,0000.01,0001.18,0001.25,0000.92,14.7,21.6,,00.0,0656.7,30.7
2021-04-04T03:08:00Z,00000200,01000000,0004.47,0002.53,0001.40,0000.30,0000.40,0000.17,0001.63,0001.24,0001.13,14.6,21.5,,00.0,0656.7,30.7
2021-04-04T03:09:00Z,00000200,01000000,0003.85,0002.47,0001.54,0000.38,0000.25,0000.11,0001.59,0001.43,0001.03,14.6,21.5,,00.0,0656.8,30.7
2021-04-04T03:10:00Z,00000200,01000000,0003.13,0002.11,0001.36,0000.23,0000.26,0000.18,0001.29,0001.36,0001.08,14.6,21.5,,00.0,0656.8,30.7
2021-04-04T03:11:00Z,00000200,01000000,0002.86,0002.31,0001.65,0000.39,0000.21,0000.20,0001.23,0001.25,0001.11,14.6,21.5,,00.0,0656.8,30.7
2021-04-04T03:12:00Z,00000200,01000000,0003.44,0002.27,0001.37,0000.68,0000.47,0000.22,0001.73,0001.12,0000.73,14.5,21.4,,00.0,0656.9,30.7
2021-04-04T03:13:00Z,00000200,01000000,0003.85,0002.03,0001.25,0000.80,0000.42,0000.49,0001.22,0001.45,0001.20,14.6,21.4,,00.0,0656.9,30.7
2021-04-04T03:14:00Z,00000200,01000000,0002.86,0002.30,0001.31,-000.21,0000.51,0000.15,0001.32,0001.11,0000.70,14.5,21.4,,00.0,0657.0,30.7
2021-04-04T03:15:00Z,00000200,01000000,0003.85,0002.27,0000.97,0000.88,0000.35,0000.31,0001.48,0001.38,0001.47,14.6,21.4,,00.0,0657.0,30.7
2021-04-04T03:16:00Z,00000200,01000000,0003.65,0002.24,0001.48,0000.39,0000.55,0000.26,0001.33,0001.43,0000.49,14.6,21.4,,00.0,0657.0,30.7
2021-04-04T03:17:00Z,00000200,01000000,0003.89,0002.55,0001.57,0000.25,0000.28,0000.16,0001.79,0001.27,0001.37,14.6,21.4,,00.0,0657.1,30.7
2021-04-04T03:18:00Z,00000200,01000000,0003.86,0002.09,0001.48,0000.43,0000.39,0000.05,0001.11,0001.37,0001.00,14.6,21.4,,00.0,0657.1,30.7
2021-04-04T03:19:00Z,00000200,01000000,0003.45,0002.29,0001.23,0000.20,0000.34,0000.29,0001.69,0001.14,0000.96,14.6,21.4,,00.0,0657.1,30.7
2021-04-04T03:20:00Z,00000200,01000000,0003.79,0002.34,0001.53,0000.56,0000.34,0000.45,0001.29,0001.26,0000.81,14.6,21.4,,00.0,0657.1,30.7
2021-04-04T03:21:00Z,00000200,01000000,0003.95,0002.52,0001.29,0000.54,0000.35,0000.05,0001.49,0001.43,0001.04,14.6,21.4,,00.0,0657.2,30.7
2021-04-04T03:22:00Z,00000200,01000000,0003.59,0002.23,0001.42,0001.25,0000.26,0000.29,0000.95,0001.09,0000.70,14.6,21.4,,00.0,0657.2,30.7
2021-04-04T03:23:00Z,00000200,01000000,0003.66,0002.30,0001.38,0000.35,0000.17,0000.35,0001.34,0001.58,0001.68,14.6,21.4,,00.0,0657.2,30.7
2021-04-04T03:24:00Z,00000200,01000000,0003.89,0002.43,0001.39,0000.37,0000.41,0000.21,0001.77,0001.49,0000.67,14.6,21.4,,00.0,0657.1,30.7
2021-04-04T03:25:00Z,00000200,01000000,0003.63,0002.24,0001.41,0000.76,0000.31,0000.24,0001.39,0001.03,0001.07,14.6,21.4,,00.0,0657.2,30.7
2021-04-04T03:26:00Z,00000200,01000000,0003.55,0002.47,0001.52,0000.78,0000.49,0000.17,0001.59,0001.66,0001.03,14.6,21.4,,00.0,0657.1,30.7
2021-04-04T03:27:00Z,00000200,01000000,0003.35,0002.29,0001.24,-000.03,0000.29,0000.47,0001.52,0001.11,0000.99,14.6,21.4,,00.0,0657.2,30.7
2021-04-04T03:28:00Z,00000200,01000000,0003.04,0002.38,0001.18,0000.71,0000.56,-000.03,0001.21,0001.20,0000.98,14.6,21.4,,00.0,0657.2,30.7
2021-04-04T03:29:00Z,00000200,01000000,0003.45,0002.31,0001.42,0000.36,0000.27,0000.34,0001.39,0001.00,0001.02,14.6,21.4,,00.0,0657.2,30.7
2021-04-04T03:30:00Z,00000200,01000000,0003.93,0002.13,0001.36,0000.49,0000.57,0000.27,0001.31,0001.66,0000.75,14.6,21.4,,00.0,0657.2,30.7
2021-04-04T03:31:00Z,00000200,01000000,0003.93,0002.28,0001.53,0000.69,0000.59,0000.22,0001.98,0001.31,0001.29,14.6,21.4,,00.0,0657.2,30.7
2021-04-04T03:32:00Z,00000200,01010000,0003.52,0002.37,0001.32,0000.75,0000.34,0000.27,0001.12,0001.24,0000.91,14.6,21.4,,00.0,0657.2,30.7
2021-04-04T03:33:00Z,00000200,01000000,0003.60,0002.35,0001.41,0000.19,0000.52,0000.07,0001.20,0001.02,0000.97,14.6,21.4,,00.0,0657.2,30.7
2021-04-04T03:34:00Z,00000200,01000000,0003.79,0002.21,0001.33,0000.55,0000.40,0000.31,0001.88,0001.39,0001.06,14.7,21.4,,00.0,0657.2,30.7
2021-04-04T03:35:00Z,00000200,01000000,0004.00,0002.42,0001.45,0000.47,0000.33,0000.27,0001.20,0001.26,0000.98,14.7,21.4,,00.0,0657.2,30.7
2021-04-04T03:36:00Z,00000200,01000000,0003.39,0002.26,0001.26,0000.27,0000.50,0000.18,0001.46,0001.34,0001.14,14.7,21.4,,00.0,0657.3,30.7
2021-04-04T03:37:00Z,00000200,01000000,0003.62,0002.05,0001.45,0000.43,0000.25,-000.06,0001.30,0001.54,0000.88,14.7,21.4,,00.0,0657.3,30.7
2021-04-04T03:38:00Z,00000200,01000000,0002.80,0002.15,0001.24,0000.74,0000.46,0000.15,0001.32,0001.26,0000.94,14.6,21.4,,00.0,0657.3,30.7
2021-04-04T03:39:00Z,00000200,01000000,0004.37,0002.08,0001.63,0000.27,0000.44,0000.04,0001.79,0001.61,0001.17,14.7,21.4,,00.0,0657.4,30.7
2021-04-04T03:40:00Z,00000200,01000000,0003.02,0002.54,0001.53,0000.50,0000.41,0000.23,0001.55,0000.90,0001.20,14.7,21.4,,00.0,0657.4,30.7
2021-04-04T03:41:00Z,00000200,01000000,0003.58,0002.49,0001.40,0000.40,0000.29,0000.20,0001.27,0001.51,0000.84,14.7,21.4,,00.0,0657.4,30.7
2021-04-04T03:42:00Z,00000200,01000000,0003.44,0002.47,0001.38,0000.61,0000.41,0000.26,0001.28,0001.38,0001.33,14.7,21.4,,00.0,0657.4,30.7
2021-04-04T03:43:00Z,00000200,01000000,0003.48,0002.33,0001.23,0000.23,0000.44,0000.31,0001.66,0001.18,0000.93,14.7,21.4,,00.0,0657.4,30.7
2021-04-04T03:44:00Z,00000200,01000000,0003.44,0002.17,0001.41,0000.30,0000.22,0000.41,0001.36,0001.53,0001.09,14.7,21.4,,00.0,0657.4,30.7
2021-04-04T03:45:00Z,00000200,01000000,0003.51,0002.20,0001.61,0000.60,0000.23,0000.22,0001.42,0001.39,0000.64,14.7,21.4,,00.0,0657.4,30.7
2021-04-04T03:46:00Z,00000200,01000000,0004.40,0002.23,0001.52,0000.41,0000.40,0000.25,0001.54,0001.16,0001.26,14.7,21.4,,00.0,0657.4,30.7
2021-04-04T03:47:00Z,00000200,01000000,0003.36,0002.44,0001.54,0000.25,0000.36,0000.34,0001.32,0001.38,0000.91,14.7,21.4,,00.0,0657.4,30.7
2021-04-04T03:48:00Z,00000200,01000000,0003.20,0002.20,0001.46,0000.62,0000.29,0000.30,0001.56,0001.09,0000.75,14.7,21.4,,00.0,0657.4,30.7
2021-04-04T03:49:00Z,00000200,01000000,0003.51,0002.20,0001.39,0000.89,0000.05,0000.07,0001.42,0001.62,0001.16,14.7,21.5,,00.0,0657.4,30.7
2021-04-04T03:50:00Z,00000200,01000000,0003.61,0002.24,0001.43,0000.97,0000.44,-000.02,0001.65,0001.24,0000.93,14.6,21.4,,00.0,0657.4,30.7
2021-04-04T03:51:00Z,00000200,01000000,0003.74,0002.11,0001.43,0000.57,0000.38,0000.36,0001.40,0001.06,0001.10,14.5,21.4,,00.0,0657.4,30.7
2021-04-04T03:52:00Z,00000200,01000000,0003.19,0002.26,0001.45,0000.47,0000.43,0000.23,0001.30,0001.24,0001.07,14.4,21.3,,00.0,0657.4,30.7
2021-04-04T03:53:00Z,00000200,01000000,0003.92,0002.28,0001.35,0000.74,0000.47,0000.21,0001.31,0001.06,0000.73,14.3,21.3,,00.0,0657.3,30.6
2021-04-04T03:54:00Z,00000200,01000000,0003.52,0002.43,0001.44,0000.57,0000.52,0000.21,0001.31,0001.44,0001.01,14.2,21.2,,00.0,0657.3,30.6
2021-04-04T03:55:00Z,00000200,01000000,0003.48,0002.28,0001.60,0000.77,0000.44,0000.22,0001.62,0001.54,0000.86,14.2,21.2,,00.0,0657.3,30.6
2021-04-04T03:56:00Z,00000200,01000000,0003.65,0002.02,0001.50,0000.56,0000.23,0000.19,0001.69,0001.25,0001.55,14.2,21.2,,00.0,0657.3,30.6
2021-04-04T03:57:00Z,00000200,41000000,,,,,,,0001.17,0001.17,0000.73,14.3,21.2,,00.0,0657.3,30.6
2021-04-04T03:58:00Z,00000200,61000000,,,,,,,0000.26,-000.23,-000.02,13.9,21.4,,00.0,0656.4,30.6
2021-04-04T03:59:00Z,00000200,21000000,,,,,,,-000.47,0000.06,-000.24,13.9,21.5,,00.0,0656.4,30.6
